#timestamp,LO_Frequency,Hit,StdDev 
1532811615.9,286047010.6,Y
1532811635.7,286046999.1,P
1532811655.5,286046996.7,N
1532811675.4,286046996.5,N
1532811695.2,286046999.0,N
1532811715.0,286046997.9,N
1532811715.9,286046997.9,N
1532811735.8,286046995.0,N
1532811755.6,286046999.5,N
1532811775.5,286046997.9,N
1532811795.3,286046997.6,N
1532811815.1,286046996.9,N
1532811835.9,286047001.1,N
1532811855.7,286047000.6,N
1532811875.6,286046999.8,N
1532811895.4,286047000.6,N
1532811915.2,286047000.8,N
1532811935.1,286047000.8,N
1532811936.0,286047000.8,N
1532811955.8,286047000.9,N
1532811975.6,286047000.8,N
1532811995.5,286046998.6,N
1532812015.3,286046998.8,N
1532812035.2,286046996.7,N
1532812055.9,286047000.8,N
1532812075.7,286047000.7,N
1532812095.6,286047000.9,N
1532812115.4,286047001.8,N
1532812135.2,286047002.1,N
1532812155.1,286047001.7,N
1532812156.0,286047001.7,N
1532812175.8,286047004.2,N
1532812195.7,286047003.5,N
1532812215.5,286047003.4,N
1532812235.3,286047007.1,Y
1532812255.2,286047006.5,P
1532812275.0,286047008.3,N
1532812275.9,286047008.3,N
1532812295.7,286047012.3,Y
1532812315.6,286047004.5,P
1532812335.4,286047004.9,P
1532812355.3,286047005.4,P
1532812375.1,286047005.0,Y
1532812395.8,286047001.0,P
1532812415.7,286046998.4,N
1532812435.5,286046997.3,N
1532812455.3,286046996.0,N
1532812475.2,286046995.2,N
1532812495.0,286046992.6,N
1532812495.9,286046992.6,N
1532812515.8,286046992.7,N
1532812535.6,286046990.4,N
1532812555.4,286046991.2,N
1532812575.3,286046992.8,N
1532812595.1,286046989.0,N
1532812615.9,286046986.3,Y
1532812635.7,286046992.6,P
1532812655.5,286046993.1,P
1532812675.4,286046990.8,P
1532812695.2,286046993.0,Y
1532812715.0,286046999.0,P
1532812715.9,286046999.0,N
1532812735.8,286047000.3,N
1532812755.6,286046998.2,N
1532812775.5,286046996.6,N
1532812795.3,286046996.7,N
1532812815.1,286046997.5,N
1532812835.9,286046999.4,N
1532812855.7,286046999.4,N
1532812875.5,286046996.6,N
1532812895.4,286046996.1,N
1532812915.2,286046995.4,N
1532812935.1,286046995.9,N
1532812936.0,286046995.9,N
1532812955.8,286046994.2,Y
1532812975.6,286046997.7,P
1532812995.5,286046995.0,P
1532813015.3,286046995.6,P
1532813035.1,286046997.3,N
1532813055.9,286046993.4,Y
1532813075.7,286046999.4,P
1532813095.6,286046995.0,P
1532813115.4,286046993.9,P
1532813135.2,286046994.0,N
1532813155.1,286046994.4,N
1532813156.0,286046994.4,N
1532813175.8,286046992.5,Y
1532813195.7,286046996.9,P
1532813215.5,286046995.3,P
1532813235.3,286046993.7,P
1532813255.2,286046994.0,Y
1532813275.0,286047000.4,P
1532813275.9,286047000.4,N
1532813295.7,286047001.4,N
1532813315.6,286047003.0,N
1532813335.4,286047005.5,N
1532813355.3,286047003.0,N
1532813375.1,286047005.9,N
1532813376.0,286047005.9,N
1532813395.8,286047005.6,N
1532813415.7,286047003.0,N
1532813435.5,286047007.1,N
1532813455.3,286047005.7,N
1532813475.2,286047003.0,N
1532813495.0,286047004.3,N
1532813495.9,286047004.3,N
1532813515.8,286047001.3,N
1532813535.6,286047004.1,N
1532813555.4,286047003.3,N
1532813575.3,286047005.9,N
1532813595.1,286047003.2,N
1532813615.8,286047001.4,N
1532813635.7,286047003.8,N
1532813655.5,286047004.0,N
1532813675.4,286047001.3,N
1532813695.2,286047003.3,N
1532813715.0,286047003.5,N
1532813715.9,286047003.5,N
1532813735.8,286047001.7,N
1532813755.6,286047003.1,N
1532813775.4,286047005.9,N
1532813795.3,286047006.2,Y
1532813815.1,286047003.0,P
1532813835.9,286047003.1,P
1532813855.7,286047004.1,P
1532813875.5,286047003.0,Y
1532813895.4,286046999.2,P
1532813915.2,286047000.8,N
1532813935.0,286047001.8,N
1532813936.0,286047001.8,N
1532813955.8,286046998.2,N
1532813975.6,286046998.1,N
1532813995.5,286047001.1,N
1532814015.3,286047002.8,N
1532814035.1,286047003.9,N
1532814055.9,286047004.2,N
1532814075.7,286047004.3,N
1532814095.6,286047003.4,N
1532814115.4,286047003.4,N
1532814135.2,286047003.2,N
1532814155.1,286047003.9,N
1532814156.0,286047003.9,N
1532814175.8,286047000.1,N
1532814195.6,286047002.5,N
1532814215.5,286047004.4,N
1532814235.3,286047004.3,N
1532814255.2,286047002.1,N
1532814275.9,286047002.5,N
1532814295.7,286046999.8,N
1532814315.6,286047001.4,N
1532814335.4,286047005.8,Y
1532814355.2,286047004.3,P
1532814375.1,286047001.7,N
1532814376.0,286047001.7,N
1532814395.8,286047011.9,Y
1532814415.7,286047002.7,P
1532814435.5,286047002.4,P
1532814455.3,286046996.5,P
1532814475.2,286046997.6,N
1532814495.0,286046994.9,N
1532814495.9,286046994.9,N
1532814515.8,286046995.7,N
1532814535.6,286046991.8,N
1532814555.4,286046994.4,N
1532814575.3,286046992.8,N
1532814595.1,286046992.4,N
1532814615.8,286046993.8,N
1532814635.7,286046994.4,N
1532814655.5,286046993.4,N
1532814675.4,286046997.1,N
1532814695.2,286046998.5,N
1532814715.0,286047000.3,N
1532814715.9,286047000.3,N
1532814735.8,286047002.7,N
1532814755.6,286047003.8,N
1532814775.4,286047006.9,N
1532814795.3,286047006.6,N
1532814815.1,286047007.2,N
1532814835.9,286047006.5,N
1532814855.7,286047010.6,N
1532814875.5,286047011.5,N
1532814895.4,286047009.9,N
1532814915.2,286047009.2,N
1532814935.0,286047006.7,N
1532814935.9,286047006.7,N
1532814955.8,286047007.1,N
1532814975.6,286047004.4,N
1532814995.5,286046999.8,N
1532815015.3,286047001.2,N
1532815035.1,286047002.5,N
1532815055.9,286047000.1,N
1532815075.7,286047000.8,N
1532815095.5,286047001.2,N
1532815115.4,286046998.2,N
1532815135.2,286046998.0,N
1532815155.1,286046995.0,N
1532815156.0,286046995.0,N
1532815175.8,286046999.3,N
1532815195.6,286046994.9,N
